Dewpoint
74 74 74 74 74 74 74 74 73 74 75 74 74 73 73 74 74 74 74 74 73 72 72 72 73 73 72 71 71 72 72 72 73 73 73 74 74 75 74 74 74 73 73 73 73 73 73 74 73 74 74 73 74 73 73 73 73 73 73 73 73 72 72 72 71 71 71 71 71 71 72 72 72 72 72 72 72 72 73 72 72 72 72 72 72
74 74 74 74 74 75 75 74 74 74 75 74 74 74 74 74 74 74 74 74 74 73 74 71 71 71 72 71 71 71 72 72 73 73 73 74 74 75 74 74 74 74 73 73 73 73 73 74 74 73 73 74 74 73 73 73 73 74 73 73 72 72 72 72 72 72 71 71 72 72 73 73 73 72 72 72 72 72 72 72 73 72 72 72 72
74 74 73 73 74 74 73 73 74 74 75 74 75 75 74 74 74 74 74 74 73 73 74 72 72 71 72 71 70 71 72 72 72 72 73 73 74 74 75 73 74 73 73 73 73 73 74 73 74 73 73 73 73 73 72 72 73 73 73 72 72 72 72 72 72 72 72 72 72 72 73 73 73 72 72 72 72 72 72 73 73 72 72 72 72
74 74 74 73 73 74 74 73 74 73 74 74 74 75 75 75 75 75 75 74 74 75 75 73 71 71 72 71 71 71 72 72 72 72 73 73 74 74 74 75 74 74 74 74 74 74 74 73 74 73 73 73 73 72 72 72 72 72 72 72 72 72 72 72 72 72 72 72 73 73 73 72 72 73 72 72 72 72 73 73 72 72 72 72 72
74 74 76 73 73 73 73 74 73 73 74 74 75 75 75 75 74 75 74 74 74 73 75 72 71 70 71 70 71 71 72 72 72 72 72 73 74 74 74 75 75 75 74 74 74 74 73 74 73 74 74 73 73 73 73 72 72 72 72 72 72 72 72 72 72 72 72 73 73 73 73 73 73 73 73 73 73 73 73 72 72 72 72 72 72
74 74 74 73 72 72 72 72 73 74 75 76 75 75 74 74 74 73 76 74 72 73 73 71 70 70 71 71 72 72 72 71 72 72 72 73 73 74 74 74 75 75 75 75 74 74 74 74 74 74 73 74 73 73 73 73 73 72 72 72 72 72 72 73 73 73 73 73 73 74 74 74 73 73 73 73 73 73 73 73 72 72 72 71 72
75 74 74 73 72 72 72 72 73 74 75 76 76 75 74 74 74 72 73 73 73 73 73 71 69 70 71 72 71 71 72 71 72 72 72 73 74 73 74 74 75 75 75 75 75 75 75 74 74 74 74 74 74 74 73 73 73 73 72 73 73 73 73 74 74 73 74 74 74 74 73 74 73 73 73 73 73 73 73 72 72 72 72 72 72
75 74 73 72 72 71 72 73 74 75 75 76 75 74 74 74 75 73 73 71 73 71 71 70 69 69 70 71 72 73 72 72 71 71 71 73 73 73 74 74 74 75 75 75 75 75 74 75 75 75 75 74 74 74 74 74 73 73 73 73 74 73 73 73 74 74 74 74 74 74 73 73 73 73 73 73 73 73 73 72 72 72 72 72 72
74 74 73 72 72 72 72 73 75 75 75 75 76 75 75 74 75 76 74 73 72 69 69 70 68 69 69 70 70 73 71 72 71 71 72 72 73 72 73 74 74 75 75 74 75 75 74 75 75 75 75 75 75 75 74 75 75 74 74 74 74 74 75 75 74 74 74 74 74 74 74 74 74 74 73 73 73 73 73 73 73 72 72 72 71
74 74 73 73 72 72 73 74 76 75 75 75 75 75 74 74 74 74 75 73 72 71 70 68 68 68 69 69 70 71 72 71 72 73 72 72 72 72 73 73 73 73 74 74 74 74 74 74 75 76 76 76 76 76 75 75 75 75 75 75 74 74 74 75 75 75 74 74 74 74 74 74 73 73 73 73 73 73 73 73 73 73 72 72 72
74 75 73 74 73 74 74 75 76 75 75 75 74 75 76 74 74 74 75 74 72 72 72 69 69 68 67 68 69 71 71 71 72 72 72 71 71 72 72 73 73 73 74 74 74 74 74 74 74 74 75 75 75 76 76 76 76 75 76 75 75 75 74 74 74 74 74 74 74 74 74 73 73 73 73 73 73 73 73 73 73 73 73 72 71
75 74 74 74 74 74 75 75 76 75 75 74 74 74 74 73 74 75 74 73 73 74 71 70 68 69 71 68 69 70 70 70 71 71 72 72 71 73 72 72 72 72 72 73 74 74 74 74 74 74 74 74 74 75 75 76 76 76 76 76 76 75 75 75 74 73 74 73 73 74 74 73 73 73 73 73 73 73 73 73 73 73 72 72 72
75 75 74 75 74 75 75 75 75 75 74 74 73 73 74 76 75 75 74 71 70 69 69 68 67 67 67 67 69 69 70 71 70 70 70 71 71 71 73 73 73 72 73 73 73 73 74 74 74 74 74 74 74 74 74 75 75 76 76 76 76 76 76 76 75 74 74 74 74 74 74 74 74 74 74 74 74 74 73 74 73 73 72 72 72
76 75 75 75 74 75 75 75 75 75 74 74 73 76 75 74 73 73 73 71 70 68 67 66 65 65 64 66 68 67 71 73 71 70 70 70 70 71 72 72 72 72 73 73 73 74 73 74 74 74 74 74 74 74 74 74 74 74 75 76 76 76 76 77 77 76 75 75 74 74 74 74 74 74 74 74 74 74 74 74 74 73 73 72 72
76 76 75 75 75 75 75 75 75 75 75 74 74 74 73 74 73 72 71 72 73 72 69 68 65 68 67 66 64 64 69 68 68 69 68 69 69 69 70 71 71 72 73 73 73 74 74 74 74 74 74 74 74 74 74 74 74 75 75 75 75 75 76 76 76 77 76 76 76 76 75 75 75 75 75 74 74 74 74 74 74 74 73 73 73
76 75 75 75 75 75 75 74 74 75 74 73 73 73 73 74 74 75 71 68 68 68 73 70 69 66 61 64 63 62 62 65 65 67 68 68 67 68 69 69 70 72 73 73 72 73 74 74 74 75 75 75 74 74 74 74 74 75 75 76 76 76 77 77 77 77 77 76 76 76 76 76 75 75 75 75 75 74 74 74 74 73 73 73 73
76 75 75 75 75 75 75 74 74 74 74 73 73 73 73 74 74 75 72 69 68 70 71 71 68 70 67 65 64 64 62 63 62 67 65 65 65 66 67 68 68 70 71 71 72 72 72 73 74 74 75 75 75 74 74 74 74 75 75 75 75 75 76 76 77 77 77 77 77 76 76 76 76 76 76 75 75 75 74 74 74 74 73 73 73
76 76 75 75 75 75 75 74 74 74 75 74 73 74 74 74 75 74 74 71 70 70 69 71 70 72 68 68 68 63 61 64 61 63 67 68 68 68 68 66 67 68 70 70 69 70 72 72 73 73 74 74 74 74 74 74 75 74 75 74 74 75 75 75 75 76 77 77 78 77 77 76 76 76 76 76 76 75 75 75 74 74 74 74 73
76 76 75 75 75 75 75 75 74 74 75 74 74 74 74 74 75 74 74 75 71 69 70 69 69 69 70 69 70 70 67 67 64 65 64 67 66 65 64 67 66 66 66 66 67 68 69 70 70 71 73 74 74 74 74 74 74 75 75 76 76 76 75 74 74 75 76 76 77 77 78 77 76 76 76 76 76 76 75 75 74 74 74 74 74
76 76 76 75 75 75 75 75 75 74 75 75 74 74 75 76 76 75 74 75 72 70 70 70 69 67 73 72 72 70 68 65 65 64 63 62 64 64 65 66 66 66 66 65 65 66 67 70 69 70 71 72 73 73 74 74 74 74 74 73 75 75 75 75 75 75 76 76 77 77 78 78 77 76 76 76 76 76 76 75 75 74 74 74 74
76 76 76 76 76 75 75 75 75 75 76 76 75 75 75 75 75 75 74 75 73 71 72 71 67 69 70 69 68 68 67 67 68 69 68 63 63 62 64 65 65 66 66 65 65 66 67 68 69 68 71 72 72 72 72 73 73 74 73 73 74 75 75 74 74 75 76 77 77 77 77 78 78 77 77 77 77 77 77 76 75 75 75 75 75
75 76 76 76 76 76 75 75 75 75 76 76 76 76 76 76 75 75 74 74 74 74 72 72 70 71 70 70 68 68 67 67 65 64 63 63 63 62 63 62 63 66 67 65 67 66 66 67 68 67 69 71 71 71 72 72 73 72 72 73 74 74 74 73 73 75 75 75 76 77 77 78 78 78 77 77 77 77 77 76 76 76 76 76 75
75 75 75 75 76 76 76 75 75 76 76 76 76 76 75 75 75 75 75 74 74 75 75 74 72 73 72 71 70 66 64 64 65 67 62 64 64 63 61 62 63 63 68 66 71 69 68 68 66 66 69 69 70 71 72 72 72 71 73 73 73 73 73 73 73 74 74 73 75 76 76 77 77 77 77 78 77 77 77 77 76 76 77 77 76
74 74 74 74 75 76 76 76 76 75 75 76 76 76 75 75 75 75 75 74 74 75 74 74 74 74 73 71 69 67 67 67 66 69 66 65 66 64 63 65 67 65 66 69 69 69 69 67 67 67 68 69 71 71 71 72 72 72 72 73 73 73 73 73 73 73 73 73 73 74 75 75 76 76 76 77 77 77 77 77 77 77 77 77 76
73 73 74 74 75 75 76 76 75 76 76 76 76 76 75 75 75 74 75 74 74 74 74 74 73 74 73 72 71 70 70 69 68 67 67 67 66 64 64 62 67 66 68 68 69 69 70 68 69 67 69 71 71 72 71 70 71 71 72 72 72 72 72 72 72 72 72 72 72 72 73 73 73 73 73 73 74 74 75 75 75 75 75 75 75
73 73 73 74 74 75 75 75 76 76 76 76 76 76 75 75 74 75 74 75 75 75 75 74 74 74 73 73 72 72 71 70 69 68 67 67 66 64 66 67 65 65 67 69 69 66 69 70 70 72 71 71 71 72 72 69 70 72 73 72 72 72 72 72 72 72 71 71 71 72 72 73 73 74 73 73 74 74 74 74 75 75 75 74 74
73 73 74 74 74 75 75 75 75 75 76 76 75 75 76 75 75 75 75 75 75 75 74 74 73 74 74 74 74 73 73 73 70 70 69 69 68 67 66 63 64 63 65 66 66 67 65 69 71 71 72 75 74 74 74 72 71 72 75 74 73 71 71 71 71 71 70 70 71 71 71 72 72 72 72 73 74 74 74 74 74 74 74 74 73
73 73 73 74 74 74 75 75 75 75 75 75 75 75 75 75 74 74 74 75 75 75 75 74 74 74 74 74 74 73 73 73 73 72 71 70 70 68 70 69 66 64 65 65 65 68 67 70 73 72 73 74 74 74 75 74 73 74 75 75 75 74 71 70 70 70 70 69 70 70 70 71 71 71 72 73 73 73 73 73 73 72 72 72 72
73 73 73 74 74 74 74 74 75 75 75 75 75 75 75 75 74 74 74 74 75 75 74 75 75 74 74 74 74 74 74 74 74 73 74 72 70 70 69 69 70 66 65 65 66 66 69 68 69 75 72 74 74 75 75 75 74 74 75 75 74 75 72 70 70 70 70 69 69 69 70 70 70 71 71 71 71 72 72 72 72 72 72 72 71
72 72 73 73 73 75 74 74 74 75 75 75 75 75 75 74 74 74 74 74 75 75 75 74 74 74 74 74 73 74 74 73 73 72 74 74 71 70 70 69 70 67 68 66 67 66 68 69 69 72 75 74 74 74 74 75 74 74 75 75 75 75 72 70 70 70 70 69 69 68 69 69 69 69 69 70 70 71 71 71 71 71 70 69 69
73 73 72 72 73 73 74 74 74 74 75 75 75 75 75 74 74 74 74 74 74 74 75 75 74 74 74 74 74 73 74 74 74 73 73 74 73 72 71 71 69 71 70 69 67 70 68 70 70 70 71 73 72 73 74 75 74 74 75 76 76 74 72 74 71 70 70 70 69 69 68 68 67 67 68 69 69 70 70 70 69 69 67 67 67
71 72 72 72 72 72 73 73 73 73 74 74 74 75 75 75 74 74 74 74 74 74 74 74 74 74 74 74 74 74 74 74 74 74 74 74 74 73 72 72 72 70 71 70 69 69 71 70 71 71 71 73 74 74 75 74 74 74 75 76 77 74 76 76 73 72 70 70 69 68 67 66 65 67 68 69 69 69 69 68 67 66 65 65 65
71 71 71 72 72 72 72 73 73 73 74 74 74 75 75 74 74 74 74 74 74 74 74 74 74 74 75 74 74 74 74 73 74 73 73 73 74 74 73 73 72 72 71 71 70 70 71 72 72 71 72 73 73 73 74 73 74 75 75 76 77 76 76 76 76 72 71 70 69 68 67 66 66 67 68 68 67 67 66 65 65 63 63 63 63
70 70 71 71 72 72 72 73 73 73 73 74 73 74 74 74 74 73 74 74 74 74 74 73 74 74 74 74 74 74 73 73 73 72 73 72 72 73 73 73 73 73 72 72 71 70 69 72 72 73 72 73 72 74 74 73 74 75 75 76 76 76 76 76 76 76 71 70 69 68 68 67 66 65 65 65 65 65 64 63 62 61 62 62 61
69 70 70 71 72 72 71 72 72 73 73 73 73 74 74 74 74 74 74 74 74 74 73 74 73 74 73 74 73 74 73 73 73 73 73 73 72 73 72 72 73 72 72 72 72 71 71 71 71 72 73 73 73 74 74 74 75 75 76 76 75 75 75 76 76 74 72 70 69 69 68 66 65 64 63 63 63 62 62 60 60 59 59 59 59
67 69 70 70 71 71 71 71 71 72 72 73 73 73 73 74 74 74 74 74 74 74 73 73 73 74 73 73 73 73 73 74 74 74 74 73 73 73 73 73 73 73 73 73 73 72 72 71 73 71 73 73 74 74 74 75 74 75 75 76 75 75 75 75 75 75 73 70 70 69 67 65 64 62 62 62 61 60 60 59 59 58 58 58 58
66 68 70 70 70 71 70 71 71 71 72 72 72 72 73 73 73 73 74 74 74 74 74 74 74 74 74 73 73 73 74 73 73 73 73 74 73 73 73 73 73 73 73 73 73 73 72 72 72 73 72 73 73 73 75 75 75 75 76 75 75 75 76 74 73 73 72 71 72 70 67 65 64 63 62 61 60 60 59 59 58 57 57 56 56
65 66 68 70 70 70 70 71 71 71 72 72 72 72 72 72 73 73 74 74 74 74 74 74 74 74 74 74 74 74 73 73 73 73 74 73 73 73 73 73 73 73 73 73 73 73 72 72 72 72 73 72 73 74 75 75 74 74 74 75 74 75 75 74 73 72 73 75 75 75 70 65 63 62 63 62 60 60 59 59 59 58 57 56 55
64 64 65 68 70 69 70 70 70 71 71 72 72 72 72 72 73 73 73 73 74 74 74 74 73 74 74 74 74 74 74 73 73 73 73 73 73 73 73 74 73 73 73 73 73 72 72 72 72 72 72 73 73 73 74 74 74 74 73 73 73 74 75 74 73 73 74 75 74 71 70 67 65 63 60 60 61 60 60 59 59 58 57 56 56
64 63 63 65 67 69 69 69 69 70 70 71 71 72 72 72 72 72 73 73 73 73 74 74 73 73 73 73 73 73 73 74 73 74 74 73 73 73 73 73 73 73 73 73 73 72 72 71 71 71 72 72 73 73 73 73 74 74 73 73 72 72 72 73 74 73 75 77 75 73 71 68 66 65 63 63 63 61 60 59 61 60 59 56 56
65 64 64 64 64 66 67 68 68 69 68 68 69 70 71 72 72 72 72 73 73 73 73 73 73 74 73 73 73 73 74 75 74 74 73 74 73 73 74 74 74 73 73 73 73 72 72 72 71 72 72 72 72 72 72 73 73 72 74 72 72 72 72 72 74 75 75 76 75 72 72 72 68 67 66 66 64 62 61 61 60 59 59 57 57
66 67 66 66 64 64 65 66 66 67 68 68 68 65 67 70 71 71 72 72 73 73 73 73 73 73 73 73 73 75 75 76 74 72 70 71 73 73 74 74 74 73 73 73 73 72 72 72 71 72 71 71 71 72 71 72 73 73 72 72 71 72 72 72 74 75 76 75 75 74 71 72 68 67 66 65 62 63 60 60 58 57 58 57 57
65 66 66 65 65 65 65 65 65 65 66 66 65 63 63 65 69 71 71 72 72 73 73 73 73 73 73 73 73 74 75 76 75 72 70 69 70 70 71 73 74 74 73 73 72 72 72 71 72 72 71 71 72 72 72 72 72 72 72 72 72 72 71 70 70 73 76 76 75 74 71 70 70 67 66 64 62 61 59 59 60 58 57 57 57
65 64 64 64 65 64 65 65 65 65 65 64 61 62 62 62 65 70 71 71 71 72 72 72 72 72 73 73 73 73 74 74 74 75 74 71 69 69 69 69 70 72 72 73 73 73 72 72 72 72 72 72 72 73 72 71 72 72 72 71 72 71 71 71 71 71 75 76 75 74 73 69 69 67 66 65 64 62 58 60 59 58 57 57 57
64 65 64 63 63 63 63 64 64 64 65 63 61 60 61 62 62 66 70 71 71 71 72 72 72 72 73 73 72 73 72 75 75 74 74 74 71 68 68 69 69 69 67 68 69 73 74 73 72 72 72 72 72 73 73 73 73 72 73 72 72 72 72 72 72 72 74 76 74 73 72 70 68 66 65 66 64 64 61 60 59 58 57 57 56
65 64 63 63 63 64 63 62 63 62 63 62 60 59 59 60 61 63 69 70 70 70 71 71 71 72 72 72 72 72 73 73 74 75 75 75 74 74 73 72 72 72 70 67 66 67 70 73 73 72 73 74 73 73 74 74 73 72 72 72 73 72 72 72 73 73 74 73 73 72 72 70 67 65 65 65 65 65 64 60 58 58 57 56 56
65 65 64 63 63 63 62 62 62 61 60 59 57 58 58 58 60 62 68 70 70 70 71 71 71 72 72 72 72 72 72 73 73 74 74 74 74 74 74 73 73 73 73 72 71 70 70 70 72 73 73 74 74 74 74 75 73 74 73 73 73 73 73 73 73 74 74 74 71 71 70 69 67 66 66 64 63 64 64 61 59 58 57 56 56
65 65 65 64 63 63 63 62 61 61 61 57 56 56 57 57 59 65 68 69 70 70 70 71 71 72 72 72 72 72 72 72 72 68 71 73 73 73 73 73 73 73 72 73 68 69 72 72 72 72 72 72 69 74 74 73 74 74 73 73 73 73 72 72 72 72 72 73 71 72 69 69 67 64 65 65 64 63 64 63 60 58 57 56 56
65 65 64 64 65 64 63 64 63 62 62 60 56 55 55 56 58 66 67 68 69 70 70 71 71 72 72 72 72 72 72 72 70 65 65 72 73 72 72 72 72 71 71 72 68 65 65 65 65 65 65 65 64 64 63 64 71 72 73 72 72 72 71 71 71 71 72 72 68 69 68 67 67 65 64 65 65 63 63 63 61 57 56 56 55
65 64 64 65 65 65 64 63 63 63 63 61 56 54 54 55 60 66 67 68 68 69 70 71 71 72 72 74 74 72 72 72 66 64 63 69 73 73 72 72 71 71 72 71 70 70 63 62 62 63 63 64 64 64 64 63 63 69 72 71 71 72 72 72 71 71 72 71 70 69 67 67 66 65 64 64 64 64 62 64 64 60 57 56 54
66 66 66 65 65 65 64 63 64 64 63 62 56 55 54 54 60 66 68 68 68 69 69 70 71 71 72 73 73 72 71 70 64 63 62 67 72 72 72 72 71 71 71 72 72 71 72 71 72 71 70 68 69 69 70 66 65 69 71 72 72 72 72 72 72 71 70 71 72 70 68 67 66 64 63 60 59 62 64 64 64 62 59 58 58